Time[GMT],salinity[psu](20m),sigma_t[kg/m^3](20m),conductivity[msiemens/cm](20m),temperature[C](20m)
2019-06-05 19:00,31.463,24.590,32.337,7.33
2019-06-05 20:00,31.682,24.825,32.142,6.86
2019-06-05 21:00,31.555,24.710,32.124,6.97
2019-06-05 22:00,31.491,24.643,32.171,7.10
2019-06-05 23:00,31.601,24.748,32.149,6.95
2019-06-06 00:00,31.747,24.869,32.249,6.91
2019-06-06 01:00,31.658,24.771,32.348,7.13
2019-06-06 02:00,31.838,24.935,32.371,6.96
2019-06-06 03:00,31.914,25.021,32.263,6.75
2019-06-06 04:00,31.957,25.068,32.218,6.65
2019-06-06 05:00,31.935,25.047,32.223,6.68
2019-06-06 06:00,31.708,24.829,32.269,6.98
2019-06-06 07:00,32.065,25.174,32.174,6.48
2019-06-06 08:00,31.983,25.102,32.152,6.54
2019-06-06 09:00,31.931,25.058,32.131,6.57
2019-06-06 10:00,31.923,25.037,32.216,6.68
2019-06-06 11:00,31.979,25.104,32.115,6.51
2019-06-06 12:00,31.951,25.070,32.172,6.60
2019-06-06 13:00,31.950,25.071,32.162,6.59
2019-06-06 14:00,31.942,25.061,32.177,6.62
2019-06-06 15:00,31.966,25.072,32.250,6.68
2019-06-06 16:00,31.885,24.969,32.428,6.98
2019-06-06 17:00,31.890,24.921,32.764,7.36
2019-06-06 18:00,31.903,24.988,32.416,6.94
2019-06-06 19:00,31.934,25.037,32.279,6.75
2019-06-06 20:00,31.930,25.037,32.261,6.73
2019-06-06 21:00,31.963,25.083,32.159,6.57
2019-06-06 22:00,31.925,25.034,32.246,6.72
2019-06-06 23:00,31.961,25.079,32.172,6.59
2019-06-07 00:00,31.948,25.058,32.226,6.67
2019-06-07 01:00,31.891,24.999,32.273,6.79
2019-06-07 02:00,31.949,25.064,32.200,6.64
2019-06-07 03:00,31.967,25.088,32.146,6.55
2019-06-07 04:00,31.983,25.107,32.116,6.50
2019-06-07 05:00,32.003,25.127,32.105,6.47
2019-06-07 06:00,31.942,25.057,32.202,6.65
2019-06-07 07:00,31.951,25.070,32.168,6.60
2019-06-07 08:00,31.965,25.088,32.134,6.54
2019-06-07 09:00,31.955,25.074,32.171,6.60
2019-06-07 10:00,31.897,25.019,32.178,6.67
2019-06-07 11:00,31.901,25.029,32.136,6.61
2019-06-07 12:00,31.879,24.996,32.216,6.73
2019-06-07 13:00,31.961,25.082,32.149,6.56
2019-06-07 14:00,31.987,25.113,32.104,6.48
2019-06-07 15:00,31.861,24.965,32.312,6.86
2019-06-07 16:00,31.904,25.024,32.186,6.67
2019-06-07 17:00,31.971,25.095,32.129,6.53
2019-06-07 18:00,31.985,25.111,32.100,6.48
2019-06-07 19:00,31.877,24.985,32.281,6.81
2019-06-07 20:00,31.880,24.977,32.347,6.89
2019-06-07 21:00,32.028,25.159,32.049,6.38
2019-06-07 22:00,32.025,25.149,32.097,6.44
2019-06-07 23:00,32.070,25.156,32.327,6.66
2019-06-08 00:00,32.000,25.098,32.288,6.69
2019-06-08 01:00,32.064,25.145,32.365,6.71
2019-06-08 02:00,31.973,25.062,32.357,6.80
2019-06-08 03:00,32.093,25.182,32.299,6.60
2019-06-08 04:00,32.080,25.164,32.337,6.66
2019-06-08 05:00,32.166,25.246,32.317,6.54
2019-06-08 06:00,32.225,25.298,32.340,6.51
2019-06-08 07:00,32.175,25.255,32.319,6.54
2019-06-08 08:00,32.169,25.256,32.269,6.48
2019-06-08 09:00,32.175,25.228,32.495,6.74
2019-06-08 10:00,32.050,25.165,32.146,6.47
2019-06-08 11:00,31.973,25.104,32.076,6.47
2019-06-08 12:00,32.003,25.145,31.985,6.33
2019-06-08 13:00,31.961,25.094,32.067,6.47
2019-06-08 14:00,31.963,25.104,32.019,6.41
2019-06-08 15:00,31.972,25.119,31.966,6.34
2019-06-08 16:00,31.910,25.041,32.112,6.58
2019-06-08 17:00,31.932,25.085,31.950,6.36
2019-06-08 18:00,31.932,25.081,31.979,6.39
2019-06-08 19:00,31.922,25.055,32.088,6.53
2019-06-08 20:00,31.956,25.093,32.043,6.45
2019-06-08 21:00,31.962,25.116,31.928,6.30
2019-06-08 22:00,31.951,25.096,31.993,6.39
2019-06-08 23:00,31.963,25.113,31.953,6.33
2019-06-09 00:00,31.881,24.964,32.439,6.99
2019-06-09 01:00,31.874,24.940,32.548,7.13
2019-06-09 02:00,31.868,24.963,32.367,6.92
2019-06-09 03:00,31.922,25.056,32.085,6.53
2019-06-09 04:00,31.914,25.035,32.177,6.65
2019-06-09 05:00,31.917,25.031,32.222,6.70
2019-06-09 06:00,31.935,25.072,32.056,6.48
2019-06-09 07:00,31.955,25.101,31.985,6.38
2019-06-09 08:00,31.934,25.078,32.012,6.43
2019-06-09 09:00,31.936,25.083,31.989,6.40
2019-06-09 10:00,31.959,25.109,31.951,6.33
2019-06-09 11:00,31.964,25.087,32.137,6.55
2019-06-09 12:00,31.960,25.080,32.156,6.57
2019-06-09 13:00,31.834,24.877,32.711,7.36
2019-06-09 14:00,31.842,24.905,32.585,7.21
2019-06-09 15:00,31.886,24.955,32.529,7.09
2019-06-09 16:00,31.859,24.934,32.494,7.08
2019-06-09 17:00,31.922,25.031,32.245,6.72
2019-06-09 18:00,31.907,25.016,32.253,6.75
2019-06-09 19:00,31.999,25.127,32.087,6.45
2019-06-09 20:00,31.939,25.060,32.163,6.60
2019-06-09 21:00,31.917,25.029,32.231,6.71
2019-06-09 22:00,31.911,25.030,32.186,6.66
2019-06-09 23:00,31.911,25.028,32.202,6.68
2019-06-10 00:00,31.909,25.031,32.170,6.65
2019-06-10 01:00,31.943,25.064,32.158,6.59
2019-06-10 02:00,31.957,25.081,32.134,6.55
2019-06-10 03:00,31.984,25.115,32.075,6.45
2019-06-10 04:00,31.866,24.977,32.265,6.80
2019-06-10 05:00,31.983,25.109,32.104,6.49
2019-06-10 06:00,32.009,25.134,32.097,6.45
2019-06-10 07:00,31.992,25.100,32.217,6.61
2019-06-10 08:00,31.985,25.091,32.241,6.65
2019-06-10 09:00,31.972,25.069,32.300,6.73
2019-06-10 10:00,32.022,25.149,32.082,6.42
2019-06-10 11:00,31.971,25.049,32.427,6.88
2019-06-10 12:00,31.958,25.093,32.060,6.46
2019-06-10 13:00,31.979,25.118,32.018,6.39
2019-06-10 14:00,31.949,25.072,32.139,6.57
2019-06-10 15:00,31.949,25.069,32.163,6.59
2019-06-10 16:00,31.976,25.102,32.106,6.50
2019-06-10 17:00,31.965,25.084,32.164,6.58
2019-06-10 18:00,31.989,25.108,32.147,6.53
2019-06-10 19:00,31.843,24.966,32.196,6.75
2019-06-10 20:00,31.959,25.057,32.300,6.74
2019-06-10 21:00,31.997,25.072,32.435,6.86
2019-06-10 22:00,32.005,25.095,32.338,6.74
2019-06-10 23:00,32.012,25.099,32.354,6.75
2019-06-11 00:00,31.998,25.098,32.267,6.66
2019-06-11 01:00,32.016,25.110,32.302,6.68
2019-06-11 02:00,31.954,25.093,32.031,6.43
2019-06-11 03:00,31.895,24.946,32.635,7.21
2019-06-11 04:00,31.916,25.002,32.403,6.91
2019-06-11 05:00,31.981,25.116,32.049,6.43
2019-06-11 06:00,31.937,24.998,32.556,7.07
2019-06-11 07:00,31.969,25.097,32.097,6.50
2019-06-11 08:00,31.981,25.119,32.025,6.40
2019-06-11 09:00,31.966,25.077,32.216,6.64
2019-06-11 10:00,31.977,25.092,32.180,6.58
2019-06-11 11:00,31.972,25.087,32.183,6.59
2019-06-11 12:00,31.977,25.100,32.126,6.52
2019-06-11 13:00,31.962,25.083,32.150,6.56
2019-06-11 14:00,31.938,25.067,32.104,6.54
2019-06-11 15:00,31.910,25.060,31.978,6.42
2019-06-11 16:00,31.916,25.067,31.975,6.41
2019-06-11 17:00,31.907,25.058,31.975,6.42
2019-06-11 18:00,31.906,25.058,31.972,6.41
2019-06-11 19:00,31.934,25.081,31.991,6.41
2019-06-11 20:00,31.928,25.076,31.989,6.41
2019-06-11 21:00,31.958,25.102,32.001,6.39
2019-06-11 22:00,31.924,25.055,32.102,6.55
2019-06-11 23:00,31.951,25.090,32.030,6.44
2019-06-12 00:00,31.928,25.003,32.467,6.97
2019-06-12 01:00,31.991,25.089,32.283,6.69
2019-06-12 02:00,31.986,25.074,32.362,6.79
2019-06-12 03:00,31.958,25.079,32.152,6.57
2019-06-12 04:00,31.930,25.051,32.168,6.62
2019-06-12 05:00,31.872,24.928,32.613,7.21
2019-06-12 06:00,31.893,25.025,32.108,6.59
2019-06-12 07:00,31.908,25.051,32.030,6.48
2019-06-12 08:00,31.934,25.075,32.035,6.46
2019-06-12 09:00,31.887,25.031,32.036,6.51
2019-06-12 10:00,31.827,24.925,32.365,6.96
2019-06-12 11:00,31.918,25.058,32.044,6.49
2019-06-12 12:00,31.891,25.038,32.010,6.48
2019-06-12 13:00,31.871,25.016,32.037,6.53
2019-06-12 14:00,31.910,25.056,32.006,6.45
2019-06-12 15:00,31.900,25.021,32.175,6.66
2019-06-12 16:00,31.876,25.003,32.154,6.66
2019-06-12 17:00,31.917,25.054,32.068,6.52
2019-06-12 18:00,31.912,25.050,32.065,6.52
2019-06-12 19:00,31.942,25.081,32.040,6.46
2019-06-12 20:00,31.950,25.088,32.042,6.45
2019-06-12 21:00,31.978,25.113,32.047,6.43
2019-06-12 22:00,31.948,25.083,32.062,6.48
2019-06-12 23:00,31.965,25.092,32.106,6.51
2019-06-13 00:00,31.986,25.112,32.106,6.49
2019-06-13 01:00,31.977,25.017,32.669,7.16
2019-06-13 02:00,32.006,25.051,32.625,7.08
2019-06-13 03:00,32.014,25.070,32.553,6.98
2019-06-13 04:00,32.035,25.099,32.489,6.89
2019-06-13 05:00,32.004,25.057,32.574,7.02
2019-06-13 06:00,32.048,25.117,32.451,6.83
2019-06-13 07:00,32.048,25.117,32.450,6.82
2019-06-13 08:00,32.048,25.117,32.450,6.83
2019-06-13 09:00,32.053,25.122,32.449,6.82
2019-06-13 10:00,32.050,25.120,32.447,6.82
2019-06-13 11:00,32.051,25.121,32.444,6.81
2019-06-13 12:00,32.057,25.129,32.427,6.79
2019-06-13 13:00,32.056,25.129,32.424,6.79
2019-06-13 14:00,32.042,25.109,32.469,6.85
2019-06-13 15:00,32.041,25.114,32.431,6.81
2019-06-13 16:00,32.054,25.132,32.385,6.74
2019-06-13 17:00,32.026,25.100,32.425,6.82
2019-06-13 18:00,32.005,25.070,32.496,6.93
2019-06-13 19:00,32.009,25.073,32.502,6.93
2019-06-13 20:00,32.016,25.088,32.448,6.86
2019-06-13 21:00,32.032,25.117,32.358,6.73
2019-06-13 22:00,32.024,25.094,32.456,6.86
2019-06-13 23:00,32.017,25.084,32.477,6.89
2019-06-14 00:00,32.038,25.120,32.370,6.74
2019-06-14 01:00,32.009,25.079,32.463,6.88
2019-06-14 02:00,31.990,25.059,32.476,6.92
2019-06-14 03:00,32.020,25.100,32.393,6.79
2019-06-14 04:00,32.025,25.087,32.508,6.92
2019-06-14 05:00,31.991,25.048,32.558,7.01
2019-06-14 06:00,31.982,25.029,32.622,7.10
2019-06-14 07:00,31.972,25.010,32.690,7.19
2019-06-14 08:00,31.981,25.041,32.538,7.00
2019-06-14 09:00,31.986,25.048,32.527,6.98
2019-06-14 10:00,32.005,25.071,32.491,6.92
2019-06-14 11:00,31.964,25.015,32.604,7.10
2019-06-14 12:00,31.986,25.041,32.568,7.03
2019-06-14 13:00,31.978,25.024,32.637,7.12
2019-06-14 14:00,31.941,24.980,32.696,7.23
2019-06-14 15:00,31.953,25.001,32.630,7.14
2019-06-14 16:00,31.977,25.043,32.507,6.97
2019-06-14 17:00,31.962,25.012,32.614,7.11
2019-06-14 18:00,31.982,25.048,32.501,6.96
2019-06-14 19:00,31.950,24.986,32.708,7.23
2019-06-14 20:00,31.964,25.011,32.631,7.13
2019-06-14 21:00,31.950,24.997,32.635,7.15
2019-06-14 22:00,31.940,24.978,32.699,7.23
2019-06-14 23:00,31.969,24.999,32.732,7.24
2019-06-15 00:00,32.005,25.049,32.634,7.09
2019-06-15 01:00,31.998,25.040,32.646,7.11
2019-06-15 02:00,31.979,25.002,32.782,7.29
2019-06-15 03:00,31.974,25.025,32.599,7.08
2019-06-15 04:00,31.971,25.032,32.542,7.02
2019-06-15 05:00,31.964,25.011,32.630,7.13
2019-06-15 06:00,31.954,25.002,32.635,7.14
2019-06-15 07:00,31.948,24.991,32.666,7.19
2019-06-15 08:00,31.959,25.031,32.471,6.95
2019-06-15 09:00,31.949,25.013,32.532,7.03
2019-06-15 10:00,31.943,25.010,32.514,7.01
2019-06-15 11:00,31.939,25.002,32.536,7.04
2019-06-15 12:00,31.955,24.964,32.874,7.42
2019-06-15 13:00,31.981,24.968,33.006,7.55
2019-06-15 14:00,31.989,24.971,33.030,7.57
2019-06-15 15:00,32.035,25.055,32.775,7.22
2019-06-15 16:00,31.980,24.985,32.895,7.42
2019-06-15 17:00,32.037,25.090,32.563,6.97
2019-06-15 18:00,31.982,25.015,32.718,7.21
2019-06-15 19:00,31.980,25.018,32.686,7.17
2019-06-15 20:00,31.983,25.034,32.598,7.07
2019-06-15 21:00,31.981,25.037,32.567,7.03
2019-06-15 22:00,31.983,25.043,32.541,7.00
2019-06-15 23:00,31.961,25.014,32.596,7.09
2019-06-16 00:00,31.962,25.021,32.554,7.04
2019-06-16 01:00,31.940,24.985,32.657,7.18
2019-06-16 02:00,31.939,24.996,32.580,7.09
2019-06-16 03:00,31.955,25.028,32.473,6.95
2019-06-16 04:00,31.986,25.053,32.497,6.95
2019-06-16 05:00,31.968,25.025,32.565,7.05
2019-06-16 06:00,31.962,25.030,32.498,6.97
2019-06-16 07:00,31.956,25.025,32.495,6.98
2019-06-16 08:00,31.953,25.024,32.485,6.97
2019-06-16 09:00,31.969,25.042,32.463,6.93
2019-06-16 10:00,31.977,25.048,32.473,6.93
2019-06-16 11:00,31.979,25.043,32.515,6.97
2019-06-16 12:00,31.962,25.010,32.626,7.12
2019-06-16 13:00,31.975,25.018,32.652,7.14
2019-06-16 14:00,31.977,25.012,32.704,7.20
2019-06-16 15:00,31.970,25.023,32.591,7.07
2019-06-16 16:00,31.999,25.059,32.533,6.98
2019-06-16 17:00,32.011,25.066,32.561,7.00
2019-06-16 18:00,31.997,25.056,32.544,6.99
2019-06-16 19:00,31.984,25.044,32.538,7.00
2019-06-16 20:00,31.971,25.019,32.623,7.11
2019-06-16 21:00,31.937,24.975,32.696,7.23
2019-06-16 22:00,31.994,25.057,32.516,6.96
2019-06-16 23:00,31.991,25.054,32.517,6.96
2019-06-17 00:00,31.995,25.062,32.495,6.93
2019-06-17 01:00,32.001,25.068,32.487,6.92
2019-06-17 02:00,31.984,25.034,32.605,7.08
2019-06-17 03:00,31.954,24.993,32.688,7.20
2019-06-17 04:00,31.925,24.910,33.040,7.65
2019-06-17 05:00,32.008,25.065,32.553,6.99
2019-06-17 06:00,32.025,25.067,32.635,7.07
2019-06-17 07:00,32.061,25.120,32.515,6.89
2019-06-17 08:00,32.071,25.127,32.528,6.89
2019-06-17 09:00,32.060,25.103,32.616,7.01
2019-06-17 10:00,31.991,24.997,32.880,7.39
2019-06-17 11:00,32.060,25.115,32.536,6.91
2019-06-17 12:00,32.068,25.115,32.585,6.96
2019-06-17 13:00,32.004,24.995,32.971,7.48
2019-06-17 14:00,31.993,24.970,33.064,7.60
2019-06-17 15:00,32.006,25.009,32.896,7.39
2019-06-17 16:00,32.025,25.041,32.805,7.27
2019-06-17 17:00,32.051,25.068,32.786,7.21
2019-06-17 18:00,32.046,25.052,32.861,7.31
2019-06-17 19:00,32.023,25.063,32.651,7.09
2019-06-17 20:00,32.009,25.035,32.748,7.22
2019-06-17 21:00,32.035,25.075,32.643,7.07
2019-06-17 22:00,32.095,25.141,32.581,6.93
2019-06-17 23:00,32.097,25.146,32.561,6.90
2019-06-18 00:00,32.111,25.157,32.569,6.90
2019-06-18 01:00,32.053,25.089,32.662,7.07
2019-06-18 02:00,32.058,25.087,32.703,7.11
2019-06-18 03:00,31.989,24.974,33.013,7.55
2019-06-18 04:00,32.179,25.228,32.515,6.76
2019-06-18 05:00,32.073,25.087,32.794,7.20
2019-06-18 06:00,32.066,25.090,32.733,7.14
2019-06-18 07:00,32.073,25.101,32.705,7.10
2019-06-18 08:00,32.001,25.003,32.904,7.41
2019-06-18 09:00,32.041,25.050,32.836,7.29
2019-06-18 10:00,31.986,25.009,32.777,7.28
2019-06-18 11:00,31.936,24.946,32.876,7.45
2019-06-18 12:00,31.929,24.875,33.274,7.92
2019-06-18 13:00,31.966,24.923,33.192,7.78
2019-06-18 14:00,32.040,25.029,32.966,7.44
2019-06-18 15:00,32.048,25.062,32.803,7.24
2019-06-18 16:00,32.051,25.040,32.963,7.42
2019-06-18 17:00,31.990,24.963,33.087,7.63
2019-06-18 18:00,31.994,24.965,33.093,7.64
2019-06-18 19:00,32.127,25.132,32.827,7.18
2019-06-18 20:00,32.082,25.082,32.880,7.29
2019-06-18 21:00,32.033,25.044,32.836,7.29
2019-06-18 22:00,31.979,24.981,32.909,7.44
2019-06-18 23:00,31.978,24.972,32.959,7.50
2019-06-19 00:00,31.980,24.951,33.105,7.66
2019-06-19 01:00,31.985,24.947,33.156,7.72
2019-06-19 02:00,31.972,24.898,33.375,7.99
2019-06-19 03:00,32.006,24.965,33.168,7.71
2019-06-19 04:00,31.991,24.924,33.332,7.92
2019-06-19 05:00,32.001,24.948,33.241,7.80
2019-06-19 06:00,32.086,25.080,32.914,7.33
2019-06-19 07:00,32.148,25.151,32.829,7.16
2019-06-19 08:00,32.117,25.142,32.706,7.05
2019-06-19 09:00,32.175,25.198,32.692,6.97
2019-06-19 10:00,32.094,25.128,32.655,7.02
2019-06-19 11:00,32.041,25.077,32.672,7.09
2019-06-19 12:00,31.964,24.958,32.965,7.52
2019-06-19 13:00,31.944,24.919,33.093,7.69
2019-06-19 14:00,31.966,24.952,33.012,7.57
2019-06-19 15:00,32.003,24.950,33.240,7.80
2019-06-19 16:00,32.063,25.086,32.745,7.15
2019-06-19 17:00,32.117,25.140,32.717,7.06
2019-06-19 18:00,32.152,25.175,32.704,7.01
2019-06-19 19:00,32.045,25.079,32.682,7.10
2019-06-19 20:00,32.117,25.153,32.634,6.97
2019-06-19 21:00,32.130,25.164,32.640,6.96
2019-06-19 22:00,32.111,25.148,32.634,6.97
2019-06-19 23:00,31.988,25.007,32.804,7.30
2019-06-20 00:00,31.993,24.961,33.115,7.66
2019-06-20 01:00,32.014,25.039,32.749,7.21
2019-06-20 02:00,31.962,24.953,32.987,7.55
2019-06-20 03:00,32.012,25.035,32.761,7.23
2019-06-20 04:00,31.949,24.977,32.759,7.29
2019-06-20 05:00,31.978,24.991,32.844,7.36
2019-06-20 06:00,31.990,25.040,32.604,7.07
2019-06-20 07:00,31.944,24.979,32.717,7.25
2019-06-20 08:00,31.916,24.939,32.807,7.39
2019-06-20 09:00,31.967,25.027,32.545,7.02
2019-06-20 10:00,31.971,25.033,32.532,7.00
2019-06-20 11:00,31.999,25.058,32.540,6.98
2019-06-20 12:00,31.991,25.052,32.532,6.98
2019-06-20 13:00,31.969,25.022,32.593,7.08
2019-06-20 14:00,31.905,24.913,32.905,7.51
2019-06-20 15:00,31.933,24.923,33.001,7.59
2019-06-20 16:00,31.905,24.879,33.110,7.75
2019-06-20 17:00,31.932,24.968,32.714,7.26
2019-06-20 18:00,31.939,24.975,32.712,7.25
2019-06-20 19:00,31.944,24.983,32.692,7.22
2019-06-20 20:00,31.952,24.997,32.647,7.16
2019-06-20 21:00,31.948,25.001,32.598,7.11
2019-06-20 22:00,31.955,24.954,32.939,7.50
2019-06-20 23:00,31.959,24.996,32.695,7.21
2019-06-21 00:00,31.943,24.946,32.917,7.49
2019-06-21 01:00,31.878,24.775,33.579,8.33
2019-06-21 02:00,31.881,24.792,33.497,8.23
2019-06-21 03:00,31.956,24.978,32.789,7.32
2019-06-21 04:00,31.957,24.985,32.754,7.28
2019-06-21 05:00,31.916,24.870,33.232,7.88
2019-06-21 06:00,31.934,24.940,32.902,7.48
2019-06-21 07:00,31.938,24.943,32.909,7.48
2019-06-21 08:00,31.943,24.947,32.909,7.48
2019-06-21 09:00,31.958,24.978,32.807,7.34
2019-06-21 10:00,31.885,24.826,33.318,8.02
2019-06-21 11:00,31.882,24.818,33.346,8.05
2019-06-21 12:00,31.897,24.854,33.215,7.88
2019-06-21 13:00,31.923,24.934,32.879,7.46
2019-06-21 14:00,31.861,24.823,33.203,7.91
2019-06-21 15:00,31.942,24.941,32.944,7.52
2019-06-21 16:00,31.934,24.941,32.900,7.47
2019-06-21 17:00,31.914,24.898,33.046,7.67
2019-06-21 18:00,31.931,24.934,32.926,7.51
2019-06-21 19:00,31.942,24.937,32.972,7.55
2019-06-21 20:00,31.942,24.939,32.959,7.53
2019-06-21 21:00,31.947,24.942,32.966,7.54
2019-06-21 22:00,31.878,24.898,32.836,7.46
2019-06-21 23:00,31.885,24.913,32.787,7.40
2019-06-22 00:00,31.919,24.978,32.580,7.12
2019-06-22 01:00,31.932,24.999,32.523,7.04
2019-06-22 02:00,31.957,25.023,32.511,6.99
2019-06-22 03:00,31.789,24.793,32.972,7.72
2019-06-22 04:00,31.933,24.998,32.530,7.04
2019-06-22 05:00,31.904,24.929,32.798,7.39
2019-06-22 06:00,31.900,24.923,32.814,7.41
2019-06-22 07:00,31.894,24.919,32.799,7.40
2019-06-22 08:00,31.895,24.912,32.846,7.45
2019-06-22 09:00,31.950,24.969,32.817,7.36
2019-06-22 10:00,31.986,25.005,32.799,7.30
2019-06-22 11:00,31.821,24.783,33.218,7.97
2019-06-22 12:00,32.006,25.015,32.855,7.34
2019-06-22 13:00,32.046,25.065,32.777,7.21
2019-06-22 14:00,32.034,25.049,32.802,7.25
2019-06-22 15:00,32.012,25.015,32.889,7.38
2019-06-22 16:00,31.923,24.891,33.140,7.77
2019-06-22 17:00,31.964,24.959,32.960,7.51
2019-06-22 18:00,31.982,24.989,32.876,7.39
2019-06-22 19:00,31.948,24.948,32.933,7.50
2019-06-22 20:00,31.935,24.939,32.918,7.50
2019-06-22 21:00,31.969,24.991,32.790,7.31
2019-06-22 22:00,31.975,25.000,32.771,7.28
2019-06-22 23:00,31.968,24.988,32.798,7.32
2019-06-23 00:00,31.965,24.982,32.823,7.35
2019-06-23 01:00,31.954,24.977,32.789,7.32
2019-06-23 02:00,31.908,24.946,32.714,7.29
2019-06-23 03:00,31.879,24.922,32.697,7.30
2019-06-23 04:00,31.888,24.943,32.612,7.19
2019-06-23 05:00,31.893,24.954,32.579,7.14
2019-06-23 06:00,31.917,24.976,32.578,7.12
2019-06-23 07:00,31.885,24.954,32.530,7.09
2019-06-23 08:00,31.846,24.913,32.557,7.17
2019-06-23 09:00,31.800,24.857,32.639,7.31
2019-06-23 10:00,31.773,24.829,32.654,7.36
2019-06-23 11:00,31.751,24.807,32.661,7.39
2019-06-23 12:00,31.734,24.800,32.610,7.35
2019-06-23 13:00,31.770,24.841,32.560,7.26
2019-06-23 14:00,31.839,24.914,32.510,7.12
2019-06-23 15:00,31.824,24.901,32.506,7.13
2019-06-23 16:00,31.823,24.899,32.504,7.13
2019-06-23 17:00,31.845,24.918,32.520,7.13
2019-06-23 18:00,31.790,24.840,32.684,7.38
2019-06-23 19:00,31.762,24.824,32.623,7.34
2019-06-23 20:00,31.768,24.829,32.629,7.34
2019-06-23 21:00,31.773,24.837,32.609,7.31
2019-06-23 22:00,31.823,24.899,32.512,7.14
2019-06-23 23:00,31.794,24.865,32.553,7.22
2019-06-24 00:00,31.835,24.910,32.509,7.12
2019-06-24 01:00,31.802,24.876,32.531,7.19
2019-06-24 02:00,31.801,24.877,32.520,7.17
2019-06-24 03:00,31.820,24.896,32.511,7.14
2019-06-24 04:00,31.730,24.794,32.626,7.38
2019-06-24 05:00,31.774,24.748,33.164,7.96
2019-06-24 06:00,31.778,24.811,32.796,7.52
2019-06-24 07:00,31.841,24.859,32.863,7.53
2019-06-24 08:00,31.878,24.869,33.019,7.68
2019-06-24 09:00,31.853,24.891,32.739,7.37
2019-06-24 10:00,31.865,24.920,32.627,7.23
2019-06-24 11:00,31.936,24.965,32.760,7.31
2019-06-24 12:00,31.879,24.949,32.528,7.10
2019-06-24 13:00,31.863,24.921,32.607,7.21
2019-06-24 14:00,31.866,24.916,32.657,7.26
2019-06-24 15:00,31.885,24.933,32.661,7.25
2019-06-24 16:00,31.802,24.859,32.639,7.31
2019-06-24 17:00,31.729,24.717,33.090,7.92
2019-06-24 18:00,31.807,24.786,33.123,7.87
2019-06-24 19:00,31.802,24.757,33.265,8.05
2019-06-24 20:00,31.777,24.735,33.258,8.07
2019-06-24 21:00,31.861,24.836,33.123,7.82
2019-06-24 22:00,31.894,24.893,32.966,7.60
2019-06-24 23:00,31.910,24.916,32.916,7.52
2019-06-25 00:00,31.896,24.897,32.949,7.57
2019-06-25 01:00,31.910,24.922,32.875,7.47
2019-06-25 02:00,31.944,24.957,32.861,7.42
2019-06-25 03:00,31.969,24.986,32.823,7.35
2019-06-25 04:00,31.886,24.872,33.051,7.70
2019-06-25 05:00,31.968,24.981,32.845,7.37
2019-06-25 06:00,31.894,24.883,33.022,7.66
2019-06-25 07:00,31.909,24.903,32.990,7.61
2019-06-25 08:00,31.900,24.885,33.049,7.69
2019-06-25 09:00,31.919,24.908,33.011,7.62
2019-06-25 10:00,31.918,24.914,32.968,7.57
2019-06-25 11:00,31.948,24.949,32.929,7.49
2019-06-25 12:00,31.958,24.961,32.913,7.46
2019-06-25 13:00,31.962,24.967,32.900,7.44
2019-06-25 14:00,31.969,24.976,32.880,7.41
2019-06-25 15:00,31.979,24.985,32.882,7.41
2019-06-25 16:00,31.985,24.992,32.874,7.39
2019-06-25 17:00,31.976,24.981,32.895,7.42
2019-06-25 18:00,31.985,24.994,32.864,7.38
2019-06-25 19:00,31.951,24.946,32.966,7.53
2019-06-25 20:00,31.939,24.926,33.021,7.61
2019-06-25 21:00,31.953,24.944,32.989,7.56
2019-06-25 22:00,31.950,24.942,32.989,7.56
2019-06-25 23:00,31.975,24.977,32.915,7.45
2019-06-26 00:00,31.998,25.009,32.851,7.35
2019-06-26 01:00,31.986,24.994,32.873,7.39
2019-06-26 02:00,31.974,24.969,32.956,7.50
2019-06-26 03:00,31.988,24.996,32.869,7.38
2019-06-26 04:00,31.988,24.999,32.854,7.36
2019-06-26 05:00,31.891,24.737,33.873,8.65
2019-06-26 06:00,31.942,24.915,33.104,7.71
2019-06-26 07:00,31.896,24.807,33.494,8.21
2019-06-26 08:00,32.000,25.007,32.868,7.37
2019-06-26 09:00,31.991,24.963,33.091,7.64
2019-06-26 10:00,31.990,24.976,33.004,7.54
2019-06-26 11:00,31.986,24.986,32.921,7.44
2019-06-26 12:00,31.998,25.003,32.883,7.39
2019-06-26 13:00,32.017,25.030,32.823,7.30
2019-06-26 14:00,31.987,24.985,32.933,7.46
2019-06-26 15:00,32.004,25.015,32.845,7.33
2019-06-26 16:00,31.957,24.945,33.002,7.57
2019-06-26 17:00,31.927,24.880,33.234,7.87
2019-06-26 18:00,31.923,24.876,33.235,7.88
2019-06-26 19:00,31.930,24.880,33.254,7.89
2019-06-26 20:00,31.954,24.958,32.907,7.46
2019-06-26 21:00,31.973,24.998,32.769,7.28
2019-06-26 22:00,31.943,24.967,32.791,7.34
2019-06-26 23:00,31.939,24.970,32.747,7.29
2019-06-27 00:00,31.949,24.980,32.737,7.27
2019-06-27 01:00,31.865,24.770,33.539,8.30
2019-06-27 02:00,31.978,25.005,32.753,7.26
2019-06-27 03:00,31.968,24.989,32.796,7.32
2019-06-27 04:00,31.956,24.960,32.908,7.46
2019-06-27 05:00,31.941,24.910,33.125,7.73
2019-06-27 06:00,31.918,24.871,33.234,7.88
2019-06-27 07:00,31.942,24.922,33.063,7.66
2019-06-27 08:00,31.950,24.940,32.998,7.57
2019-06-27 09:00,31.948,24.950,32.925,7.49
2019-06-27 10:00,31.949,24.953,32.908,7.47
2019-06-27 11:00,31.929,24.941,32.870,7.45
2019-06-27 12:00,31.954,24.967,32.854,7.40
2019-06-27 13:00,31.915,24.902,33.030,7.65
2019-06-27 14:00,31.885,24.838,33.250,7.94
2019-06-27 15:00,31.886,24.855,33.154,7.82
2019-06-27 16:00,31.900,24.938,32.717,7.30
2019-06-27 17:00,31.878,24.913,32.746,7.36
2019-06-27 18:00,31.874,24.901,32.791,7.41
2019-06-27 19:00,31.774,24.767,33.046,7.82
2019-06-27 20:00,31.860,24.888,32.795,7.43
2019-06-27 21:00,31.860,24.877,32.869,7.52
2019-06-27 22:00,31.871,24.883,32.890,7.53
2019-06-27 23:00,31.885,24.897,32.884,7.51
2019-06-28 00:00,31.730,24.752,32.882,7.68
2019-06-28 01:00,31.878,24.916,32.729,7.33
2019-06-28 02:00,31.814,24.862,32.689,7.36
2019-06-28 03:00,31.816,24.858,32.726,7.40
2019-06-28 04:00,31.838,24.871,32.777,7.44
2019-06-28 05:00,31.906,24.942,32.723,7.30
2019-06-28 06:00,31.938,24.974,32.714,7.25
2019-06-28 07:00,31.854,24.896,32.711,7.34
2019-06-28 08:00,31.875,24.913,32.726,7.34
2019-06-28 09:00,31.825,24.782,33.245,8.00